Regional Weather Roundup
Issued by NWS

Home | Current Version | Previous Version | Text Only | Print | Product List | Glossary Off
Versions: 1 2 3 4 5 6 7 8 9 10 11 12 13 14 15 16 17 18 19 20 21 22 23 24 25 26 27 28 29 30 31 32 33 34 35 36 37 38 39 40 41 42 43 44 45 46 47 48 49 50

000
ASUS43 KOAX 191902
RWRNE

WEATHER ROUNDUP FOR NEBRASKA
NATIONAL WEATHER SERVICE OMAHA NE
200 PM CDT SAT AUG 19 2017

NOTES: SATELLITE DATA IS BEING USED TO AUGMENT CLOUD COVER ABOVE
       12000 FEET.
       "FAIR" INDICATES FEW OR NO CLOUDS BELOW 12,000 FEET WITH NO
       SIGNIFICANT WEATHER AND/OR OBSTRUCTIONS TO VISIBILITY.


NEZ001>004-019>022-054>056-192000-
NEBRASKA PANHANDLE

CITY           SKY/WX    TMP DP  RH WIND       PRES   REMARKS
SCOTTSBLUFF    SUNNY     91  42  18 NW15      29.94F
ALLIANCE       SUNNY     89  48  24 W12       29.93F
CHADRON        SUNNY     92  43  18 N5        29.88F
GORDON         FAIR      90  47  22 NE5       29.89F
KIMBALL        SUNNY     91  41  17 SW9G21    30.03S
SIDNEY         MOSUNNY   96  47  18 SW14      29.98F HX  92
$$

NEZ057>060-069>072-079>082-192000-
SOUTHWEST NEBRASKA

CITY           SKY/WX    TMP DP  RH WIND       PRES   REMARKS
NORTH PLATTE   SUNNY     89  68  49 S14G25    29.89F HX  93
IMPERIAL       SUNNY     91  62  37 S17G23    29.93F HX  91
LEXINGTON      SUNNY     87  70  58 S17       29.92F HX  91
MCCOOK         SUNNY     93  64  38 S20G25    29.91F HX  94
OGALLALA       SUNNY     88  66  47 S13       29.92F HX  90
$$

NEZ005>010-023>029-035>040-094-192000-
NORTH CENTRAL NEBRASKA

CITY           SKY/WX    TMP DP  RH WIND       PRES   REMARKS
VALENTINE      SUNNY     92  61  35 S18G26    29.83F HX  92
AINSWORTH      SUNNY     87  63  44 S17G26    29.87F
BROKEN BOW     SUNNY     89  66  46 S16G28    29.90F HX  91
O`NEILL        SUNNY     82  65  55 S16G23    29.90F
ORD            SUNNY     85  65  51 S14G21    29.89F
THEDFORD       SUNNY     91  64  41 S14       29.89F HX  92
$$

NEZ041-046>049-061>064-073>077-083>087-192000-
SOUTH CENTRAL NEBRASKA

CITY           SKY/WX    TMP DP  RH WIND       PRES   REMARKS
GRAND ISLAND   SUNNY     84  69  60 SE15      29.93F
AURORA         SUNNY     83  70  64 SE13      29.94F
HASTINGS       SUNNY     87  66  49 S13G23    29.95F
HEBRON         SUNNY     89  66  46 SE9       29.94F HX  91
HOLDREGE       SUNNY     85  67  54 S13       29.93F
KEARNEY        SUNNY     86  71  60 S15G22    29.93F HX  91
YORK           SUNNY     82  68  61 SE10      29.95F
$$

NEZ011>018-030>034-042>045-192000-
NORTHEAST NEBRASKA

CITY           SKY/WX    TMP DP  RH WIND       PRES   REMARKS
NORFOLK        SUNNY     81  63  54 SE14      29.92F
ALBION         CLOUDY    80  69  68 SE12      29.93F
BLAIR          SUNNY     82  59  45 CALM      29.96F
COLUMBUS       SUNNY     81  68  64 SE8       29.94F
FREMONT        SUNNY     81  63  54 SE5       29.96F
TEKAMAH        SUNNY     81  63  54 VRB5      29.94F
WAYNE          SUNNY     79  65  61 S8        29.94S
$$

NEZ050>053-065>068-078-088>093-192000-
SOUTHEAST NEBRASKA

CITY           SKY/WX    TMP DP  RH WIND       PRES   REMARKS
LINCOLN        SUNNY     85  63  47 SE9       29.95F
OMAHA EPPLEY   SUNNY     86  55  34 CALM      29.94F
BEATRICE       SUNNY     89  65  44 E8        29.95F HX  90
FALLS CITY     SUNNY     85  64  49 SE8       29.95F
NEBRASKA CITY  SUNNY     84  62  48 SE6       29.97F
PLATTSMOUTH    SUNNY     83  57  40 SE3       29.96F
$$

NEZ044-045-051>053-067-192000-
OMAHA AREA

CITY           SKY/WX    TMP DP  RH WIND       PRES   REMARKS
OMAHA EPPLEY   SUNNY     86  55  34 CALM      29.94F
BLAIR          SUNNY     82  59  45 CALM      29.96F
FREMONT        SUNNY     81  63  54 SE5       29.96F
MILLARD        SUNNY     85  60  42 SE5       29.95F
OFFUTT AFB     SUNNY     85  61  44 SE7       29.94F
PLATTSMOUTH    SUNNY     83  57  40 SE3       29.96F
WAHOO          FAIR      82  64  54 SE7       29.95F
$$




USA.gov is the U.S. government's official web portal to all federal, state and local government web resources and services.